Change the Weather History Date:

Tuesday, April 30, 2013

  Actual Average Record
Temperature  
Mean Temperature 63 °F 54 °F  
Max Temperature 75 °F 67 °F 87 °F (1899)
Min Temperature 50 °F 41 °F 24 °F (1977)
Degree Days  
Heating Degree Days 2 11  
Month to date heating degree days 384 463  
Since 1 July heating degree days 5558 5563  
Cooling Degree Days 0 0  
Month to date cooling degree days 3 3  
Year to date cooling degree days 3 3  
Growing Degree Days 12 (Base 50)    
Moisture  
Dew Point 50 °F    
Average Humidity 69    
Maximum Humidity 100    
Minimum Humidity 38    
Precipitation  
Precipitation 0.00 in 0.13 in 1.90 in (1966)
Month to date precipitation 2.73 3.80  
Year to date precipitation 12.58 14.09  
Snow  
Snow 0.00 in - - ()
Month to date snowfall 0.0  
Since 1 September snowfall 77.5  
Snow Depth 0.00 in    
Sea Level Pressure  
Sea Level Pressure 30.11 in    
Wind  
Wind Speed 3 mph (SE)    
Max Wind Speed 12 mph    
Max Gust Speed 20 mph    
Visibility 4 miles    
Events Fog    
T = Trace of Precipitation, MM = Missing Value Source: NWS Daily Summary

Daily Weather History Graph

Daily Weather History Graph

Search for Another Location

Airport or City:

Trip Planner

Search our weather history database for the weather conditions in past years. The results will help you decide how hot, cold, wet, or windy it might be!

Date:

Astronomy

Apr. 30, 2013 Rise Set
Actual Time 6:22 AM EDT 8:11 PM EDT
Civil Twilight 5:53 AM EDT 8:40 PM EDT
Nautical Twilight 5:19 AM EDT 9:14 PM EDT
Astronomical Twilight 4:41 AM EDT 9:52 PM EDT
Moon 12:32 AM EDT (4/30) 10:50 AM EDT (4/30)
Length of Visible Light 14h 46m
Length of Day
13h 48m
Waning Gibbous, 70% of the Moon is Illuminated
Apr 30
Waning Gibbous
May 2
Last Quarter
May 9
New
May 18
First Quarter
May 25
Full

Hourly Weather History & Observations

Time (EDT) Temp. Dew Point Humidity Pressure Visibility Wind Dir Wind Speed Gust Speed Precip Events Conditions
12:12 AM 55.4 °F 53.6 °F 94% 30.06 in 1.8 mi Calm Calm - N/A   Overcast
12:33 AM 55.4 °F 53.6 °F 94% 30.06 in 3.0 mi Calm Calm - N/A   Overcast
12:51 AM 55.0 °F 54.0 °F 96% 30.06 in 5.0 mi Calm Calm - N/A   Overcast
12:59 AM 55.4 °F 53.6 °F 94% 30.06 in 1.5 mi Calm Calm - N/A   Overcast
1:09 AM 53.6 °F 51.8 °F 94% 30.06 in 0.5 mi Calm Calm - N/A Fog Fog
1:15 AM 53.6 °F 51.8 °F 94% 30.06 in 0.2 mi Calm Calm - N/A Fog Fog
1:46 AM 53.6 °F 51.8 °F 94% 30.06 in 0.8 mi Calm Calm - N/A   Overcast
1:51 AM 53.1 °F 52.0 °F 96% 30.06 in 0.8 mi Calm Calm - N/A   Overcast
2:05 AM 53.6 °F 53.6 °F 100% 30.05 in 0.2 mi Calm Calm - N/A Fog Fog
2:51 AM 53.1 °F 52.0 °F 96% 30.05 in 0.2 mi Calm Calm - N/A Fog Fog
3:35 AM 53.6 °F 51.8 °F 94% 30.05 in 0.5 mi Calm Calm - N/A Fog Fog
3:51 AM 52.0 °F 51.1 °F 97% 30.06 in 1.0 mi Calm Calm - N/A   Mist
4:15 AM 51.8 °F 51.8 °F 100% 30.07 in 0.5 mi Calm Calm - N/A Fog Fog
4:51 AM 51.1 °F 51.1 °F 100% 30.08 in 0.5 mi Calm Calm - N/A Fog Fog
5:05 AM 51.8 °F 50.0 °F 94% 30.09 in 0.2 mi Calm Calm - N/A Fog Fog
5:44 AM 51.8 °F 50.0 °F 94% 30.10 in 0.5 mi Calm Calm - N/A Fog Fog
5:51 AM 51.1 °F 50.0 °F 96% 30.10 in 0.5 mi Calm Calm - N/A Fog Fog
6:03 AM 51.8 °F 50.0 °F 94% 30.10 in 0.2 mi Calm Calm - N/A Fog Fog
6:14 AM 51.8 °F 50.0 °F 94% 30.10 in 0.5 mi Calm Calm - N/A Fog Fog
6:34 AM 50.0 °F 50.0 °F 100% 30.11 in 0.2 mi Calm Calm - N/A Fog Fog
6:51 AM 50.0 °F 48.9 °F 96% 30.12 in 0.2 mi Calm Calm - N/A Fog Fog
7:51 AM 50.0 °F 48.9 °F 96% 30.15 in 0.2 mi Calm Calm - N/A Fog Fog
8:51 AM 51.1 °F 50.0 °F 96% 30.17 in 0.5 mi Calm Calm - N/A Fog Fog
9:04 AM 51.8 °F 50.0 °F 94% 30.15 in 1.0 mi Calm Calm - N/A   Overcast
9:12 AM 51.8 °F 50.0 °F 94% 30.15 in 0.5 mi Calm Calm - N/A Fog Fog
9:51 AM 52.0 °F 51.1 °F 97% 30.16 in 0.5 mi Calm Calm - N/A Fog Fog
10:00 AM 53.6 °F 51.8 °F 94% 30.14 in 2.0 mi Calm Calm - N/A   Overcast
10:07 AM 53.6 °F 51.8 °F 94% 30.14 in 8.0 mi Calm Calm - N/A   Overcast
10:25 AM 55.4 °F 51.8 °F 88% 30.14 in 10.0 mi Calm Calm - N/A   Scattered Clouds
10:51 AM 63.0 °F 54.0 °F 72% 30.15 in 10.0 mi Calm Calm - N/A   Scattered Clouds
11:51 AM 68.0 °F 48.9 °F 50% 30.12 in 10.0 mi Variable 4.6 mph - N/A   Scattered Clouds
12:51 PM 69.1 °F 48.0 °F 47% 30.10 in 10.0 mi West 3.5 mph - N/A   Scattered Clouds
1:51 PM 71.1 °F 45.0 °F 39% 30.10 in 10.0 mi Calm Calm - N/A   Clear
2:51 PM 73.9 °F 46.9 °F 38% 30.09 in 10.0 mi Variable 4.6 mph - N/A   Mostly Cloudy
3:51 PM 72.0 °F 48.0 °F 43% 30.11 in 10.0 mi Calm Calm - N/A   Mostly Cloudy
4:51 PM 72.0 °F 48.9 °F 44% 30.10 in 10.0 mi Variable 6.9 mph - N/A   Partly Cloudy
5:51 PM 69.1 °F 48.9 °F 49% 30.12 in 10.0 mi Variable 5.8 mph - N/A   Partly Cloudy
6:51 PM 66.0 °F 48.0 °F 52% 30.14 in 10.0 mi ESE 8.1 mph - N/A   Clear
7:51 PM 62.1 °F 46.9 °F 58% 30.17 in 10.0 mi SE 8.1 mph - N/A   Clear
8:51 PM 60.1 °F 46.9 °F 62% 30.20 in 10.0 mi SE 8.1 mph - N/A   Clear
9:51 PM 57.9 °F 46.9 °F 67% 30.23 in 10.0 mi Variable 3.5 mph - N/A   Clear
10:51 PM 55.9 °F 46.9 °F 72% 30.23 in 10.0 mi SE 8.1 mph - N/A   Clear
11:51 PM 57.0 °F 46.0 °F 67% 30.22 in 10.0 mi SE 9.2 mph - N/A   Clear